Regional Weather Roundup
Issued by NWS

Home | Current Version | Previous Version | Graphics & Text | Print | Product List | Glossary On
Versions: 1 2 3 4 5 6 7 8 9 10 11 12 13 14 15 16 17 18 19 20 21 22 23 24 25 26 27 28 29 30 31 32 33 34 35 36 37 38 39 40 41 42 43 44 45 46 47 48 49 50
000
ASUS45 KBOU 031110
RWRCO

WEATHER ROUNDUP FOR COLORADO
NATIONAL WEATHER SERVICE DENVER/BOULDER CO
500 AM MDT MON AUG 03 2015

NOTE: "FAIR" INDICATES FEW OR NO CLOUDS BELOW 12000 FEET WITH NO
SIGNIFICANT WEATHER AND/OR OBSTRUCTIONS TO VISIBILITY.

COZ001>005-013-030-031-031200-
...NORTHWEST COLORADO...

CITY           SKY/WX    TMP DP  RH WIND       PRES   REMARKS
CRAIG          RAIN      60  32  34 SE9       30.17R
HAYDEN         CLOUDY    57  52  82 N6        30.18S
MEEKER         LGT RAIN  58  55  90 CALM      30.16R
MOUNT WERNER   NOT AVBL
STEAMBOAT SPGS CLOUDY    57  49  74 CALM      30.20F
WALDEN         CLOUDY    54  41  62 CALM      30.28F
$$

COZ006>008-011-031200-
...WEST CENTRAL VALLEYS...

CITY           SKY/WX    TMP DP  RH WIND       PRES   REMARKS
GRAND JUNCTION MOCLDY    62  57  83 CALM      30.07S
MONTROSE       MOCLDY    61  58  90 S6        30.16S
EAGLE          CLOUDY    57  55  94 CALM      30.22S
RIFLE          CLOUDY    61  58  90 CALM      30.13R
DELTA          CLOUDY    63  60  90 NE5       30.13R
NUCLA          MOCLDY    57  54  88 MISG      30.20S
$$

COZ017>023-064>068-031200-
...SOUTHWEST COLORADO...

CITY           SKY/WX    TMP DP  RH WIND       PRES   REMARKS
DURANGO        FOG       53  52  96 CALM      30.24S VSB 1/4
CORTEZ         CLOUDY    58  55  90 CALM      30.18R
PAGOSA SPRINGS CLOUDY    56  55  98 CALM      30.30S
TELLURIDE      CLOUDY    54  49  85 CALM      30.36F
WOLF CREEK PAS NOT AVBL
$$

COZ009-010-012-014-032>034-037-058>063-031200-
...CENTRAL COLORADO...

CITY           SKY/WX    TMP DP  RH WIND       PRES   REMARKS
ASPEN          CLOUDY    52  50  93 SW3       30.26R
BUENA VISTA    CLOUDY    54  52  92 CALM      30.30F
COPPER MTN     CLOUDY    54  32  43 SE7G21    30.55R
BERTHOUD PASS  CLOUDY    43  32  65 SE22      30.61S
COTTONWOOD PAS CLOUDY    54  45  71 W3        30.41F
GUNNISON       CLOUDY    55  52  88 NE5       30.31F
KREMMLING      CLOUDY    55  43  62 CALM      30.26S
LEADVILLE      CLOUDY    46  46 100 CALM      30.41R
MONARCH PASS   CLOUDY    45  36  70 E14G20    30.64S
SALIDA         CLOUDY    57  54  88 CALM      30.35S
SUNLIGHT       LGT RAIN  46  45  93 SE3       30.48R
WILKERSON PASS CLOUDY    50  34  53 SE3       30.55R
$$

COZ069>075-031200-
...SAN LUIS VALLEY/SANGRE DE CRISTO MOUNTAINS...

CITY           SKY/WX    TMP DP  RH WIND       PRES   REMARKS
ALAMOSA        CLOUDY    55  53  93 E6        30.27F
LA VETA PASS   LGT RAIN  46  45  93 MISG      30.43F
SAGUACHE       CLOUDY    55  52  88 NW6       30.30S
$$

COZ035-036-038>040-031200-
...NORTHERN COLORADO FRONT RANGE...

CITY           SKY/WX    TMP DP  RH WIND       PRES   REMARKS
DENVER INTL AP CLOUDY    66  49  54 S10       30.08S
DMNS CITY PARK   N/A     67  50  53 E8        30.08R
AURORA         MOCLDY    64  51  64 S10       30.11S
FRONT RANGE AP NOT AVBL
ERIE MUNI ARPT CLOUDY    64  55  73 CALM      30.07S
BOULDER MUN AP CLOUDY    68  48  49 CALM      30.07S
CENTENNIAL     CLOUDY    64  51  62 S7        30.12S
BROOMFIELD     CLOUDY    66  50  55 CALM      30.11R
FORT COLLINS   MOCLDY    61  52  72 NW5       30.07S
LONGMONT       MOCLDY    66  53  63 CALM      30.07S
$$

COZ041-046-047-076>085-087-088-031200-
...PIKES PEAK/PALMER DIVIDE AND SOUTHERN FOOTHILLS...

CITY           SKY/WX    TMP DP  RH WIND       PRES   REMARKS
COLO. SPRINGS  CLOUDY    67  50  54 CALM      30.17S
A. F. ACADEMY  CLOUDY    61  51  70 N3        30.18S
ELLICOTT       CLOUDY   N/A N/A N/A SE6       30.14F
FALCON         CLOUDY    62  50  65 CALM      30.22S
FORT CARSON    CLOUDY    65  51  62 N5        30.13S
LIMON          CLOUDY    57  52  83 N3        30.11F
MONUMENT HILL  NOT AVBL
TRINIDAD       CLOUDY    63  55  75 SW10      30.12F
$$

COZ042>045-048>051-090-091-031200-
...NORTHEAST COLORADO...

CITY           SKY/WX    TMP DP  RH WIND       PRES   REMARKS
GREELEY ARPT   MOCLDY    61  54  77 NE5       30.05S
AKRON          MOCLDY    68  50  52 S9        30.05S
BURLINGTON     CLOUDY    64  59  83 SW5       30.03F
WRAY           CLEAR     63  57  82 CALM      30.00S
STERLING       MOCLDY    59  54  82 CALM      30.01R
HOLYOKE        CLEAR     63  59  88 W6        30.00S
FORT MORGAN    MOCLDY    62  52  69 CALM      30.05S
$$

COZ086-089-092>099-031200-
...SOUTHEAST COLORADO...

CITY           SKY/WX    TMP DP  RH WIND       PRES   REMARKS
PUEBLO         CLOUDY    69  57  65 CALM      30.05S
LA JUNTA       CLOUDY    70  57  63 CALM      30.01S
LAMAR          CLOUDY    67  61  81 CALM      29.97S
SPRINGFIELD      N/A     67  61  81 W5        30.02F
$$


USA.gov is the U.S. government's official web portal to all federal, state and local government web resources and services.